[[{"header":{"parameterUnit":"m.s-1","parameterCategory":1,"la1":30.2992,"la2":30.254,"lo1":-89.0895,"lo2":-89.0443,"dy":0.0025,"dx":0.0025,"nx":19,"ny":19,"refTime":"2026-04-27T21:00:00:Z","depth":0,"parameterNumber":2,"parameterNumberName":"U-component_of_WINDS"},"data":[0,0,0,-0.9762,-0.9764,-0.9878,-0.9879,-1.0013,-1.0014,0,0,0,0,0,0,0,0,0,0,0,-0.9719,-0.972,-0.9762,-0.9765,-0.9878,-0.9879,-1.0013,-1.0014,0,0,0,0,0,0,0,0,0,0,0,-0.9719,-0.972,-0.972,-0.9765,-0.9878,-0.9879,-1.0013,-0.9931,0,0,0,0,0,0,0,0,0,0,-0.9823,-0.9774,-0.9719,-0.972,-0.9766,-0.9878,-0.9879,-0.9928,-0.9936,-0.9956,0,-0.9969,0,-0.9993,-1.0022,-1.0023,0,0,0,-0.9772,-0.9766,-0.9805,-0.972,-0.9766,-0.9878,-0.9829,-0.9933,-0.9943,-0.9967,-0.9971,-0.9976,-0.9996,-1.0023,-1.0024,-1.0107,-1.0107,0,0,-0.9766,-0.9735,-0.9798,-0.9811,-0.979,-0.9825,-0.9833,-0.9939,-0.9941,-0.9971,-0.998,-0.9998,-1.0024,-1.0025,-1.0107,-1.0107,0,0,0,-0.9743,-0.973,-0.9767,-0.9805,-0.9826,-0.9828,-0.9837,-0.9937,-0.9951,-0.9981,-0.9999,-1.0024,-1.0026,-1.0107,-1.0107,-1.0078,0,0,0,-0.9739,-0.9717,-0.9764,-0.9746,-0.9824,-0.9882,-0.9832,-0.9944,-0.9957,-0.9999,-1.0024,-1.0027,-1.0107,-1.0107,-1.0079,-1.007,0,0,0,-0.9715,-0.9714,-0.9727,-0.9745,-0.9792,-0.9881,-0.9902,-0.9947,-0.9967,-1.0023,-1.0027,-1.0107,-1.0107,-1.008,-1.0071,-1.0083,0,0,0,-0.9681,-0.9701,-0.9726,-0.9757,-0.9791,-0.9862,-0.9902,-0.9957,-1.0001,-1.0025,-1.0107,-1.0107,-1.008,-1.0072,-1.0083,-1.0087,-1.0085,0,0,-0.969,-0.9701,-0.9722,-0.9748,-0.9806,-0.9848,-0.9904,-0.9973,-1.0008,-1.0072,-1.0075,-1.0079,-1.0071,-1.0083,-1.0088,-1.0087,0,0,0,-0.9714,-0.9728,-0.9751,-0.979,-0.9843,-0.9889,-0.9953,-0.9979,-1.0035,-1.0034,-1.0087,-1.0084,-1.0092,-1.0095,-1.0094,-1.0103,-1.0107,-1.0107,-1.0107,-0.9683,-0.9725,-0.9761,-0.9816,-0.9855,-0.9921,-0.9957,-1.0004,-1.0035,-1.0047,-1.0067,-1.0064,-1.0067,-1.0066,-1.0075,-1.0072,-1.0072,-1.0072,-1.0072,-0.97,-0.9727,-0.9768,-0.9818,-0.9862,-0.9906,-0.9972,-0.9993,-1.0041,-1.0053,-1.0063,-1.0072,-1.0063,-1.0073,-1.007,-1.0071,-1.0071,-1.0071,-1.0071,-0.9684,-0.9704,-0.9734,-0.9796,-0.984,-0.9897,-0.9941,-0.9981,-1.0018,-1.0028,-1.0053,-1.0053,-1.0059,-1.0037,-1.0037,-1.0037,-1.0037,-1.0037,-1.0037,-0.9655,-0.969,-0.9721,-0.978,-0.9811,-0.9857,-0.9925,-0.9957,-1.0004,-1.0029,-1.003,-1.006,-1.0054,-1.0052,-1.0037,-1.0037,-1.0037,-1.0037,-1.0037,-0.9656,-0.9662,-0.9709,-0.974,-0.9813,-0.9854,-0.9904,-0.9967,-1.0,-1.0021,-1.005,-1.0039,-1.0054,-1.0056,-1.0054,-1.0041,-1.0041,-1.0041,-1.0041,-0.9642,-0.9653,-0.9711,-0.9758,-0.9809,-0.9859,-0.9914,-0.9968,-1.0025,-1.0048,-1.0057,-1.0058,-1.0057,-1.0073,-1.0074,-1.0073,-1.0064,-1.0065,-1.0065,-0.9645,-0.9663,-0.9701,-0.9754,-0.9814,-0.9866,-0.9919,-0.9973,-1.0039,-1.0066,-1.0068,-1.0067,-1.0069,-1.0068,-1.0094,-1.0094,-1.0093,0,0]},{"header":{"parameterUnit":"m.s-1","parameterCategory":1,"la1":30.2992,"la2":30.254,"lo1":-89.0895,"lo2":-89.0443,"dy":0.0025,"dx":0.0025,"nx":19,"ny":19,"refTime":"2026-04-27T21:00:00:Z","depth":0,"parameterNumber":3,"parameterNumberName":"V-component_of_WINDS"},"data":[0,0,0,4.3137,4.3139,4.3208,4.3209,4.3306,4.3307,0,0,0,0,0,0,0,0,0,0,0,4.3124,4.3125,4.3137,4.3139,4.3208,4.3209,4.3306,4.3307,0,0,0,0,0,0,0,0,0,0,0,4.3124,4.3125,4.3126,4.3139,4.3208,4.3209,4.3306,4.325,0,0,0,0,0,0,0,0,0,0,4.318,4.3177,4.3125,4.3126,4.314,4.3208,4.3209,4.3247,4.3253,4.3279,0,4.3306,0,4.3309,4.3314,4.3315,0,0,0,4.3133,4.3171,4.3184,4.3126,4.3141,4.3208,4.3175,4.325,4.3257,4.3288,4.3308,4.3311,4.331,4.3315,4.3316,4.3493,4.3494,0,0,4.3129,4.314,4.3179,4.3189,4.3181,4.3173,4.3178,4.3254,4.3276,4.3308,4.3313,4.3312,4.3316,4.3317,4.3492,4.3493,0,0,0,4.3122,4.3138,4.3148,4.3185,4.3197,4.3175,4.318,4.3272,4.3275,4.3314,4.3313,4.3316,4.3318,4.349,4.3492,4.356,0,0,0,4.312,4.3134,4.3147,4.3154,4.3196,4.3236,4.3197,4.327,4.3278,4.3312,4.3316,4.3319,4.3489,4.3491,4.3556,4.359,0,0,0,4.3117,4.3134,4.3147,4.3155,4.3185,4.3235,4.3241,4.3271,4.3278,4.3315,4.3319,4.3488,4.3491,4.3552,4.3583,4.3641,0,0,0,4.3117,4.3205,4.3148,4.3245,4.3185,4.3277,4.3241,4.3308,4.3348,4.3317,4.3489,4.3492,4.355,4.3579,4.3637,4.3692,4.3716,0,0,4.3234,4.3219,4.3275,4.3226,4.3332,4.3265,4.338,4.3404,4.3396,4.346,4.3464,4.3557,4.3583,4.364,4.3846,4.3865,0,0,0,4.3316,4.3357,4.3382,4.3422,4.3444,4.3466,4.3472,4.3481,4.3535,4.3432,4.3593,4.3608,4.3641,4.3666,4.3683,4.371,4.3504,4.3504,4.3504,4.3497,4.3484,4.3576,4.3571,4.361,4.3616,4.3646,4.3658,4.3632,4.367,4.3689,4.3816,4.3846,4.3859,4.3888,4.3717,4.3717,4.3717,4.3717,4.3667,4.3723,4.3687,4.3764,4.3748,4.3811,4.382,4.3799,4.3855,4.38,4.3828,4.377,4.388,4.3905,4.3722,4.3721,4.3721,4.372,4.372,4.3785,4.3809,4.382,4.3877,4.3921,4.3912,4.3968,4.3951,4.3935,4.3963,4.3982,4.3981,4.3977,4.3973,4.3974,4.3974,4.3974,4.3975,4.3975,4.3903,4.3913,4.3963,4.3995,4.4019,4.4047,4.4054,4.4076,4.4096,4.4079,4.4079,4.4049,4.3894,4.3856,4.3982,4.3981,4.398,4.3979,4.3979,4.4081,4.4038,4.4116,4.414,4.4176,4.4221,4.4199,4.4246,4.4261,4.4289,4.4253,4.4141,4.4124,4.4111,4.4079,4.4255,4.4255,4.4255,4.4255,4.4181,4.4171,4.4247,4.4287,4.4323,4.4311,4.4398,4.4404,4.4403,4.4411,4.4383,4.4339,4.4326,4.4317,4.4299,4.4269,4.449,4.449,4.4491,4.429,4.4283,4.4361,4.4362,4.4388,4.4411,4.4492,4.4537,4.4526,4.45,4.4417,4.4407,4.4336,4.4314,4.4286,4.4259,4.4204,0,0]}]]